Time,TemperatureF,DewpointF,PressureIn,WindDirection,WindDirectionDegrees,WindSpeedMPH,WindSpeedGustMPH,Humidity,HourlyPrecipIn,Conditions,Clouds,dailyrainin,SoftwareType,DateUTC
2013-03-05 00:00:00,32.5,24.3,29.78,WNW,298,11.0,19.0,71,0.00,,,0.00,meteohub,2013-03-05 05:00:00,
2013-03-05 00:05:00,32.5,24.4,29.78,West,281,6.0,16.0,72,0.00,,,0.00,meteohub,2013-03-05 05:05:00,
2013-03-05 00:10:00,32.4,24.3,29.78,WNW,294,7.0,18.0,72,0.00,,,0.00,meteohub,2013-03-05 05:10:00,
2013-03-05 00:15:00,32.4,24.3,29.78,WNW,298,4.0,19.0,72,0.00,,,0.00,meteohub,2013-03-05 05:15:00,
2013-03-05 00:20:00,32.2,24.3,29.79,WNW,290,6.0,19.0,72,0.00,,,0.00,meteohub,2013-03-05 05:20:00,
2013-03-05 00:25:00,32.0,24.1,29.79,WNW,292,6.0,19.0,72,0.00,,,0.00,meteohub,2013-03-05 05:25:00,
2013-03-05 00:30:00,31.8,24.1,29.79,WNW,292,11.0,15.0,73,0.00,,,0.00,meteohub,2013-03-05 05:30:00,
2013-03-05 00:35:00,31.6,23.9,29.79,NW,308,6.0,14.0,73,0.00,,,0.00,meteohub,2013-03-05 05:35:00,
2013-03-05 00:40:00,31.5,23.9,29.80,WNW,294,6.0,14.0,73,0.00,,,0.00,meteohub,2013-03-05 05:40:00,
2013-03-05 00:45:00,31.5,23.9,29.80,WNW,284,6.0,14.0,73,0.00,,,0.00,meteohub,2013-03-05 05:45:00,
2013-03-05 00:50:00,31.5,24.1,29.80,NW,306,7.0,13.0,74,0.00,,,0.00,meteohub,2013-03-05 05:50:00,
2013-03-05 00:55:00,31.3,23.9,29.80,WNW,302,12.0,13.0,74,0.00,,,0.00,meteohub,2013-03-05 05:55:00,
2013-03-05 01:00:00,31.3,23.9,29.81,WNW,287,5.0,14.0,74,0.00,,,0.00,meteohub,2013-03-05 06:00:00,
2013-03-05 01:05:00,31.3,23.9,29.81,West,270,3.0,14.0,74,0.00,,,0.00,meteohub,2013-03-05 06:05:00,
2013-03-05 01:10:00,31.3,23.9,29.81,West,279,3.0,15.0,74,0.00,,,0.00,meteohub,2013-03-05 06:10:00,
2013-03-05 01:16:00,31.3,23.9,29.81,NW,307,5.0,15.0,74,0.00,,,0.00,meteohub,2013-03-05 06:16:00,
2013-03-05 01:21:00,31.3,23.9,29.81,WNW,303,2.0,15.0,74,0.00,,,0.00,meteohub,2013-03-05 06:21:00,
2013-03-05 01:26:00,31.3,23.9,29.81,NW,318,3.0,12.0,74,0.00,,,0.00,meteohub,2013-03-05 06:26:00,
2013-03-05 01:31:00,31.3,23.9,29.82,WNW,298,6.0,14.0,74,0.00,,,0.00,meteohub,2013-03-05 06:31:00,
2013-03-05 01:36:00,31.3,23.9,29.82,WNW,293,2.0,14.0,74,0.00,,,0.00,meteohub,2013-03-05 06:36:00,
2013-03-05 01:41:00,31.3,23.9,29.82,WNW,300,4.0,12.0,74,0.00,,,0.00,meteohub,2013-03-05 06:41:00,
2013-03-05 01:46:00,31.3,23.9,29.82,NNW,327,8.0,12.0,74,0.00,,,0.00,meteohub,2013-03-05 06:46:00,
2013-03-05 01:51:00,31.1,23.7,29.82,WNW,300,3.0,13.0,74,0.00,,,0.00,meteohub,2013-03-05 06:51:00,
2013-03-05 01:56:00,31.1,23.7,29.82,West,263,3.0,13.0,74,0.00,,,0.00,meteohub,2013-03-05 06:56:00,
2013-03-05 02:01:00,30.9,23.5,29.82,West,279,6.0,15.0,74,0.00,,,0.00,meteohub,2013-03-05 07:01:00,
2013-03-05 02:06:00,30.9,23.5,29.82,West,281,4.0,15.0,74,0.00,,,0.00,meteohub,2013-03-05 07:06:00,
2013-03-05 02:11:00,30.9,23.5,29.82,WNW,302,4.0,13.0,74,0.00,,,0.00,meteohub,2013-03-05 07:11:00,
2013-03-05 02:16:00,30.9,23.5,29.82,NW,319,8.0,13.0,74,0.00,,,0.00,meteohub,2013-03-05 07:16:00,
2013-03-05 02:21:00,30.9,23.5,29.82,NW,315,4.0,13.0,74,0.00,,,0.00,meteohub,2013-03-05 07:21:00,
2013-03-05 02:26:00,30.7,23.4,29.82,NW,314,0.0,13.0,74,0.00,,,0.00,meteohub,2013-03-05 07:26:00,
2013-03-05 02:31:00,30.7,23.4,29.82,WNW,286,4.0,13.0,74,0.00,,,0.00,meteohub,2013-03-05 07:31:00,
2013-03-05 02:36:00,30.7,23.7,29.82,West,280,5.0,13.0,75,0.00,,,0.00,meteohub,2013-03-05 07:36:00,
2013-03-05 02:41:00,30.7,23.7,29.83,West,267,5.0,13.0,75,0.00,,,0.00,meteohub,2013-03-05 07:41:00,
2013-03-05 02:46:00,30.6,23.5,29.83,NW,308,4.0,13.0,75,0.00,,,0.00,meteohub,2013-03-05 07:46:00,
2013-03-05 02:51:00,30.6,23.5,29.83,NW,306,5.0,12.0,75,0.00,,,0.00,meteohub,2013-03-05 07:51:00,
2013-03-05 02:56:00,30.6,23.5,29.83,West,272,3.0,12.0,75,0.00,,,0.00,meteohub,2013-03-05 07:56:00,
2013-03-05 03:01:00,30.4,23.4,29.83,NW,313,4.0,12.0,75,0.00,,,0.00,meteohub,2013-03-05 08:01:00,
2013-03-05 03:06:00,30.4,23.4,29.84,WNW,300,1.0,12.0,75,0.00,,,0.00,meteohub,2013-03-05 08:06:00,
2013-03-05 03:11:00,30.4,23.4,29.84,WNW,288,6.0,13.0,75,0.00,,,0.00,meteohub,2013-03-05 08:11:00,
2013-03-05 03:16:00,30.2,23.2,29.84,NW,309,5.0,13.0,75,0.00,,,0.00,meteohub,2013-03-05 08:16:00,
2013-03-05 03:21:00,30.0,23.4,29.84,NW,304,2.0,10.0,76,0.00,,,0.00,meteohub,2013-03-05 08:21:00,
2013-03-05 03:26:00,30.0,23.4,29.84,WNW,288,7.0,10.0,76,0.00,,,0.00,meteohub,2013-03-05 08:26:00,
2013-03-05 03:31:00,30.0,23.4,29.84,WNW,288,5.0,13.0,76,0.00,,,0.00,meteohub,2013-03-05 08:31:00,
2013-03-05 03:36:00,30.0,23.4,29.84,NW,311,4.0,13.0,76,0.00,,,0.00,meteohub,2013-03-05 08:36:00,
2013-03-05 03:41:00,30.0,23.4,29.84,WNW,294,11.0,14.0,76,0.00,,,0.00,meteohub,2013-03-05 08:41:00,
2013-03-05 03:46:00,30.0,23.7,29.85,WNW,296,4.0,14.0,77,0.00,,,0.00,meteohub,2013-03-05 08:46:00,
2013-03-05 03:51:00,30.0,23.4,29.85,NW,310,3.0,14.0,76,0.00,,,0.00,meteohub,2013-03-05 08:51:00,
2013-03-05 03:56:00,30.0,23.7,29.85,NW,309,0.0,12.0,77,0.00,,,0.00,meteohub,2013-03-05 08:56:00,
2013-03-05 04:01:00,30.0,23.7,29.86,WNW,302,5.0,12.0,77,0.00,,,0.00,meteohub,2013-03-05 09:01:00,
2013-03-05 04:06:00,30.0,23.7,29.86,WNW,283,3.0,12.0,77,0.00,,,0.00,meteohub,2013-03-05 09:06:00,
2013-03-05 04:11:00,30.0,23.7,29.86,West,269,6.0,11.0,77,0.00,,,0.00,meteohub,2013-03-05 09:11:00,
2013-03-05 04:16:00,29.8,23.5,29.86,WNW,290,3.0,11.0,77,0.00,,,0.00,meteohub,2013-03-05 09:16:00,
2013-03-05 04:21:00,29.8,23.5,29.87,West,267,3.0,6.0,77,0.00,,,0.00,meteohub,2013-03-05 09:21:00,
2013-03-05 04:26:00,29.8,23.5,29.87,West,270,0.0,8.0,77,0.00,,,0.00,meteohub,2013-03-05 09:26:00,
2013-03-05 04:31:00,29.7,23.4,29.87,West,271,1.0,8.0,77,0.00,,,0.00,meteohub,2013-03-05 09:31:00,
2013-03-05 04:36:00,29.7,23.4,29.87,West,259,0.0,6.0,77,0.00,,,0.00,meteohub,2013-03-05 09:36:00,
2013-03-05 04:41:00,29.7,23.4,29.88,West,261,2.0,4.0,77,0.00,,,0.00,meteohub,2013-03-05 09:41:00,
2013-03-05 04:46:00,29.5,23.5,29.88,West,261,1.0,4.0,78,0.00,,,0.00,meteohub,2013-03-05 09:46:00,
2013-03-05 04:52:00,29.5,23.5,29.88,West,279,4.0,7.0,78,0.00,,,0.00,meteohub,2013-03-05 09:52:00,
2013-03-05 04:57:00,29.5,23.5,29.88,West,275,2.0,7.0,78,0.00,,,0.00,meteohub,2013-03-05 09:57:00,
2013-03-05 05:01:00,29.3,23.4,29.89,West,281,0.0,7.0,78,0.00,,,0.00,meteohub,2013-03-05 10:01:00,
2013-03-05 05:07:00,29.3,23.4,29.89,WNW,293,4.0,7.0,78,0.00,,,0.00,meteohub,2013-03-05 10:07:00,
2013-03-05 05:12:00,29.1,23.4,29.89,WNW,292,0.0,7.0,79,0.00,,,0.00,meteohub,2013-03-05 10:12:00,
2013-03-05 05:17:00,29.1,23.4,29.89,WNW,282,0.0,7.0,79,0.00,,,0.00,meteohub,2013-03-05 10:17:00,
2013-03-05 05:22:00,29.1,23.4,29.90,West,281,0.0,7.0,79,0.00,,,0.00,meteohub,2013-03-05 10:22:00,
2013-03-05 05:27:00,29.1,23.4,29.90,WNW,282,0.0,4.0,79,0.00,,,0.00,meteohub,2013-03-05 10:27:00,
2013-03-05 05:32:00,29.1,23.4,29.90,West,281,1.0,4.0,79,0.00,,,0.00,meteohub,2013-03-05 10:32:00,
2013-03-05 05:37:00,29.1,23.7,29.90,West,281,0.0,4.0,80,0.00,,,0.00,meteohub,2013-03-05 10:37:00,
2013-03-05 05:42:00,29.1,23.4,29.91,WSW,256,4.0,4.0,79,0.00,,,0.00,meteohub,2013-03-05 10:42:00,
2013-03-05 05:47:00,29.1,23.4,29.91,West,273,0.0,6.0,79,0.00,,,0.00,meteohub,2013-03-05 10:47:00,
2013-03-05 05:52:00,29.3,23.5,29.91,West,279,3.0,7.0,79,0.00,,,0.00,meteohub,2013-03-05 10:52:00,
2013-03-05 05:57:00,29.5,23.7,29.91,West,263,0.0,7.0,79,0.00,,,0.00,meteohub,2013-03-05 10:57:00,
2013-03-05 06:02:00,29.7,23.9,29.91,NW,316,0.0,9.0,79,0.00,,,0.00,meteohub,2013-03-05 11:02:00,
2013-03-05 06:07:00,29.8,24.1,29.91,WNW,284,1.0,9.0,79,0.00,,,0.00,meteohub,2013-03-05 11:07:00,
2013-03-05 06:12:00,29.8,24.1,29.91,NW,321,4.0,9.0,79,0.00,,,0.00,meteohub,2013-03-05 11:12:00,
2013-03-05 06:17:00,30.0,24.1,29.91,WNW,282,4.0,7.0,78,0.00,,,0.00,meteohub,2013-03-05 11:17:00,
2013-03-05 06:22:00,30.2,24.3,29.92,WNW,286,3.0,11.0,78,0.00,,,0.00,meteohub,2013-03-05 11:22:00,
2013-03-05 06:27:00,30.4,24.3,29.92,NW,318,4.0,11.0,78,0.00,,,0.00,meteohub,2013-03-05 11:27:00,
2013-03-05 06:32:00,30.6,24.4,29.92,NW,305,2.0,11.0,78,0.00,,,0.00,meteohub,2013-03-05 11:32:00,
2013-03-05 06:37:00,30.6,24.4,29.92,NW,304,5.0,10.0,78,0.00,,,0.00,meteohub,2013-03-05 11:37:00,
2013-03-05 06:42:00,30.7,24.4,29.93,NW,305,3.0,10.0,77,0.00,,,0.00,meteohub,2013-03-05 11:42:00,
2013-03-05 06:47:00,30.7,24.4,29.93,WNW,296,4.0,10.0,77,0.00,,,0.00,meteohub,2013-03-05 11:47:00,
2013-03-05 06:52:00,30.9,24.6,29.93,NW,309,2.0,10.0,77,0.00,,,0.00,meteohub,2013-03-05 11:52:00,
2013-03-05 06:57:00,31.1,24.8,29.94,NW,323,5.0,10.0,77,0.00,,,0.00,meteohub,2013-03-05 11:57:00,
2013-03-05 07:02:00,31.3,24.6,29.94,WNW,300,3.0,10.0,76,0.00,,,0.00,meteohub,2013-03-05 12:02:00,
2013-03-05 07:07:00,31.3,25.0,29.94,WNW,288,3.0,8.0,77,0.00,,,0.00,meteohub,2013-03-05 12:07:00,
2013-03-05 07:12:00,31.5,24.8,29.94,NW,305,2.0,8.0,76,0.00,,,0.00,meteohub,2013-03-05 12:12:00,
2013-03-05 07:17:00,31.5,24.8,29.95,NW,313,6.0,6.0,76,0.00,,,0.00,meteohub,2013-03-05 12:17:00,
2013-03-05 07:22:00,31.6,25.3,29.95,NNW,331,6.0,9.0,77,0.00,,,0.00,meteohub,2013-03-05 12:22:00,
2013-03-05 07:27:00,31.6,25.0,29.95,WNW,284,4.0,9.0,76,0.00,,,0.00,meteohub,2013-03-05 12:27:00,
2013-03-05 07:32:00,31.8,25.2,29.95,NW,321,9.0,9.0,76,0.00,,,0.00,meteohub,2013-03-05 12:32:00,
2013-03-05 07:37:00,31.8,24.8,29.95,WNW,299,2.0,11.0,75,0.00,,,0.00,meteohub,2013-03-05 12:37:00,
2013-03-05 07:42:00,32.2,25.2,29.95,West,271,4.0,11.0,75,0.00,,,0.00,meteohub,2013-03-05 12:42:00,
2013-03-05 07:47:00,32.4,25.3,29.95,WNW,296,5.0,11.0,75,0.00,,,0.00,meteohub,2013-03-05 12:47:00,
2013-03-05 07:52:00,32.4,25.3,29.95,NW,305,5.0,10.0,75,0.00,,,0.00,meteohub,2013-03-05 12:52:00,
2013-03-05 07:57:00,32.5,25.2,29.95,NW,325,3.0,9.0,74,0.00,,,0.00,meteohub,2013-03-05 12:57:00,
2013-03-05 08:02:00,32.7,25.7,29.96,West,266,5.0,6.0,75,0.00,,,0.00,meteohub,2013-03-05 13:02:00,
2013-03-05 08:07:00,33.1,25.7,29.96,North,0,9.0,11.0,74,0.00,,,0.00,meteohub,2013-03-05 13:07:00,
2013-03-05 08:12:00,33.4,25.7,29.96,NW,311,6.0,13.0,73,0.00,,,0.00,meteohub,2013-03-05 13:12:00,
2013-03-05 08:17:00,33.6,25.5,29.96,WNW,301,4.0,15.0,72,0.00,,,0.00,meteohub,2013-03-05 13:17:00,
2013-03-05 08:22:00,34.2,26.1,29.96,NW,311,4.0,15.0,72,0.00,,,0.00,meteohub,2013-03-05 13:22:00,
2013-03-05 08:27:00,34.3,25.9,29.96,NW,304,11.0,15.0,71,0.00,,,0.00,meteohub,2013-03-05 13:27:00,
2013-03-05 08:32:00,34.9,26.1,29.96,North,351,4.0,16.0,70,0.00,,,0.00,meteohub,2013-03-05 13:32:00,
2013-03-05 08:37:00,35.2,26.4,29.96,NNW,333,4.0,16.0,70,0.00,,,0.00,meteohub,2013-03-05 13:37:00,
2013-03-05 08:42:00,35.6,26.4,29.96,NW,311,13.0,16.0,69,0.00,,,0.00,meteohub,2013-03-05 13:42:00,
2013-03-05 08:47:00,35.8,26.6,29.96,WNW,290,2.0,15.0,69,0.00,,,0.00,meteohub,2013-03-05 13:47:00,
2013-03-05 08:52:00,36.0,26.1,29.96,NW,325,9.0,15.0,67,0.00,,,0.00,meteohub,2013-03-05 13:52:00,
2013-03-05 08:57:00,36.1,26.6,29.96,NNW,337,1.0,14.0,68,0.00,,,0.00,meteohub,2013-03-05 13:57:00,
2013-03-05 09:02:00,36.7,27.1,29.96,NNW,348,7.0,14.0,68,0.00,,,0.00,meteohub,2013-03-05 14:02:00,
2013-03-05 09:07:00,36.9,27.0,29.97,NW,326,2.0,14.0,67,0.00,,,0.00,meteohub,2013-03-05 14:07:00,
2013-03-05 09:12:00,37.0,27.5,29.97,NW,323,4.0,14.0,68,0.00,,,0.00,meteohub,2013-03-05 14:12:00,
2013-03-05 09:17:00,37.6,27.7,29.97,NW,306,3.0,14.0,67,0.00,,,0.00,meteohub,2013-03-05 14:17:00,
2013-03-05 09:22:00,37.9,27.7,29.97,NNW,331,2.0,12.0,66,0.00,,,0.00,meteohub,2013-03-05 14:22:00,
2013-03-05 09:27:00,37.9,28.0,29.97,NW,315,5.0,12.0,67,0.00,,,0.00,meteohub,2013-03-05 14:27:00,
2013-03-05 09:32:00,38.1,27.9,29.97,NNW,328,7.0,12.0,66,0.00,,,0.00,meteohub,2013-03-05 14:32:00,
2013-03-05 09:37:00,37.9,28.0,29.97,NNW,334,2.0,16.0,67,0.00,,,0.00,meteohub,2013-03-05 14:37:00,
2013-03-05 09:42:00,37.9,28.0,29.97,NNW,329,1.0,16.0,67,0.00,,,0.00,meteohub,2013-03-05 14:42:00,
2013-03-05 09:47:00,38.3,28.2,29.97,NNW,346,5.0,16.0,67,0.00,,,0.00,meteohub,2013-03-05 14:47:00,
2013-03-05 09:52:00,38.3,27.5,29.97,NW,309,17.0,17.0,65,0.00,,,0.00,meteohub,2013-03-05 14:52:00,
2013-03-05 09:57:00,38.5,28.4,29.97,NNW,329,6.0,17.0,67,0.00,,,0.00,meteohub,2013-03-05 14:57:00,
2013-03-05 10:02:00,38.7,27.9,29.97,NNW,346,15.0,17.0,65,0.00,,,0.00,meteohub,2013-03-05 15:02:00,
2013-03-05 10:07:00,38.8,27.7,29.97,NNW,338,2.0,17.0,64,0.00,,,0.00,meteohub,2013-03-05 15:07:00,
2013-03-05 10:12:00,39.0,28.6,29.97,North,355,5.0,15.0,66,0.00,,,0.00,meteohub,2013-03-05 15:12:00,
2013-03-05 10:17:00,39.0,28.2,29.97,WNW,290,8.0,15.0,65,0.00,,,0.00,meteohub,2013-03-05 15:17:00,
2013-03-05 10:22:00,39.0,28.6,29.97,North,355,2.0,12.0,66,0.00,,,0.00,meteohub,2013-03-05 15:22:00,
2013-03-05 10:27:00,39.2,28.8,29.98,NNW,344,1.0,11.0,66,0.00,,,0.00,meteohub,2013-03-05 15:27:00,
2013-03-05 10:32:00,39.4,28.9,29.98,North,5,11.0,11.0,66,0.00,,,0.00,meteohub,2013-03-05 15:32:00,
2013-03-05 10:37:00,39.4,28.9,29.98,NNE,22,7.0,16.0,66,0.00,,,0.00,meteohub,2013-03-05 15:37:00,
2013-03-05 10:42:00,39.4,28.6,29.98,NNE,13,4.0,16.0,65,0.00,,,0.00,meteohub,2013-03-05 15:42:00,
2013-03-05 10:47:00,39.6,28.8,29.98,NNW,331,5.0,16.0,65,0.00,,,0.00,meteohub,2013-03-05 15:47:00,
2013-03-05 10:52:00,39.7,28.9,29.98,North,0,4.0,11.0,65,0.00,,,0.00,meteohub,2013-03-05 15:52:00,
2013-03-05 10:57:00,39.9,28.8,29.98,NNW,338,3.0,11.0,64,0.00,,,0.00,meteohub,2013-03-05 15:57:00,
2013-03-05 11:02:00,39.9,28.8,29.98,NNW,342,2.0,11.0,64,0.00,,,0.00,meteohub,2013-03-05 16:02:00,
2013-03-05 11:07:00,40.3,29.1,29.98,North,355,7.0,11.0,64,0.00,,,0.00,meteohub,2013-03-05 16:07:00,
2013-03-05 11:12:00,40.5,29.3,29.98,North,0,3.0,13.0,64,0.00,,,0.00,meteohub,2013-03-05 16:12:00,
2013-03-05 11:17:00,40.6,29.8,29.98,NE,40,9.0,15.0,65,0.00,,,0.00,meteohub,2013-03-05 16:17:00,
2013-03-05 11:22:00,40.8,29.1,29.98,NNW,347,5.0,15.0,63,0.00,,,0.00,meteohub,2013-03-05 16:22:00,
2013-03-05 11:27:00,41.2,30.0,29.98,NNW,330,4.0,15.0,64,0.00,,,0.00,meteohub,2013-03-05 16:27:00,
2013-03-05 11:32:00,41.4,29.7,29.98,North,355,7.0,12.0,63,0.00,,,0.00,meteohub,2013-03-05 16:32:00,
2013-03-05 11:37:00,41.5,30.2,29.98,North,0,2.0,12.0,64,0.00,,,0.00,meteohub,2013-03-05 16:37:00,
2013-03-05 11:42:00,41.5,29.1,29.98,NW,308,0.0,10.0,61,0.00,,,0.00,meteohub,2013-03-05 16:42:00,
2013-03-05 11:47:00,41.7,30.0,29.98,North,0,6.0,10.0,63,0.00,,,0.00,meteohub,2013-03-05 16:47:00,
2013-03-05 11:52:00,41.7,29.7,29.98,North,11,3.0,13.0,62,0.00,,,0.00,meteohub,2013-03-05 16:52:00,
2013-03-05 11:57:00,42.1,30.4,29.98,NNW,335,9.0,13.0,63,0.00,,,0.00,meteohub,2013-03-05 16:57:00,
2013-03-05 12:02:00,42.3,29.8,29.98,NW,318,2.0,14.0,61,0.00,,,0.00,meteohub,2013-03-05 17:02:00,
2013-03-05 12:07:00,42.1,29.1,29.98,NW,319,4.0,14.0,60,0.00,,,0.00,meteohub,2013-03-05 17:07:00,
2013-03-05 12:12:00,42.1,30.0,29.98,NW,313,6.0,14.0,62,0.00,,,0.00,meteohub,2013-03-05 17:12:00,
2013-03-05 12:17:00,42.3,30.2,29.98,WNW,298,3.0,12.0,62,0.00,,,0.00,meteohub,2013-03-05 17:17:00,
2013-03-05 12:22:00,42.6,30.6,29.98,NNW,338,5.0,11.0,62,0.00,,,0.00,meteohub,2013-03-05 17:22:00,
2013-03-05 12:27:00,42.6,29.7,29.98,NNE,15,3.0,11.0,60,0.00,,,0.00,meteohub,2013-03-05 17:27:00,
2013-03-05 12:32:00,42.6,29.7,29.98,NNE,14,2.0,12.0,60,0.00,,,0.00,meteohub,2013-03-05 17:32:00,
2013-03-05 12:37:00,43.0,30.0,29.98,North,355,9.0,12.0,60,0.00,,,0.00,meteohub,2013-03-05 17:37:00,
2013-03-05 12:42:00,43.0,29.7,29.98,North,9,7.0,11.0,59,0.00,,,0.00,meteohub,2013-03-05 17:42:00,
2013-03-05 12:47:00,43.0,30.0,29.97,NNE,13,9.0,14.0,60,0.00,,,0.00,meteohub,2013-03-05 17:47:00,
2013-03-05 12:52:00,43.0,30.4,29.97,NW,319,4.0,17.0,61,0.00,,,0.00,meteohub,2013-03-05 17:52:00,
2013-03-05 12:57:00,42.4,29.5,29.97,North,5,6.0,17.0,60,0.00,,,0.00,meteohub,2013-03-05 17:57:00,
2013-03-05 13:02:00,42.4,29.5,29.97,NNW,345,3.0,17.0,60,0.00,,,0.00,meteohub,2013-03-05 18:02:00,
2013-03-05 13:07:00,42.4,30.0,29.97,North,355,10.0,12.0,61,0.00,,,0.00,meteohub,2013-03-05 18:07:00,
2013-03-05 13:11:00,42.4,30.0,29.97,NE,38,0.0,12.0,61,0.00,,,0.00,meteohub,2013-03-05 18:11:00,
2013-03-05 13:17:00,43.0,30.0,29.97,NNW,338,0.0,12.0,60,0.00,,,0.00,meteohub,2013-03-05 18:17:00,
2013-03-05 13:22:00,43.5,30.6,29.97,NNW,327,3.0,12.0,60,0.00,,,0.00,meteohub,2013-03-05 18:22:00,
2013-03-05 13:27:00,43.7,29.8,29.97,NNE,19,5.0,11.0,58,0.00,,,0.00,meteohub,2013-03-05 18:27:00,
2013-03-05 13:32:00,43.5,29.7,29.98,North,5,5.0,11.0,58,0.00,,,0.00,meteohub,2013-03-05 18:32:00,
2013-03-05 13:37:00,43.3,30.0,29.98,NNE,16,5.0,13.0,59,0.00,,,0.00,meteohub,2013-03-05 18:37:00,
2013-03-05 13:42:00,43.3,30.7,29.98,WNW,290,4.0,13.0,61,0.00,,,0.00,meteohub,2013-03-05 18:42:00,
2013-03-05 13:47:00,43.5,30.6,29.98,North,5,3.0,13.0,60,0.00,,,0.00,meteohub,2013-03-05 18:47:00,
2013-03-05 13:52:00,43.7,30.4,29.98,NNW,342,4.0,12.0,59,0.00,,,0.00,meteohub,2013-03-05 18:52:00,
2013-03-05 13:57:00,43.9,30.0,29.99,NE,42,4.0,12.0,58,0.00,,,0.00,meteohub,2013-03-05 18:57:00,
2013-03-05 14:02:00,44.1,30.2,29.99,North,5,5.0,12.0,58,0.00,,,0.00,meteohub,2013-03-05 19:02:00,
2013-03-05 14:07:00,44.1,30.2,29.99,ENE,57,6.0,12.0,58,0.00,,,0.00,meteohub,2013-03-05 19:07:00,
2013-03-05 14:12:00,44.1,31.1,29.99,North,355,4.0,12.0,60,0.00,,,0.00,meteohub,2013-03-05 19:12:00,
2013-03-05 14:17:00,44.2,30.4,29.99,NNE,15,7.0,11.0,58,0.00,,,0.00,meteohub,2013-03-05 19:17:00,
2013-03-05 14:22:00,43.9,29.7,29.99,NE,34,0.0,12.0,57,0.00,,,0.00,meteohub,2013-03-05 19:22:00,
2013-03-05 14:27:00,43.9,30.0,29.99,WNW,286,9.0,12.0,58,0.00,,,0.00,meteohub,2013-03-05 19:27:00,
2013-03-05 14:32:00,43.9,30.9,29.99,NNW,340,5.0,16.0,60,0.00,,,0.00,meteohub,2013-03-05 19:32:00,
2013-03-05 14:37:00,44.1,29.8,29.99,NNE,15,2.0,16.0,57,0.00,,,0.00,meteohub,2013-03-05 19:37:00,
2013-03-05 14:42:00,44.1,30.2,29.99,NNE,24,0.0,16.0,58,0.00,,,0.00,meteohub,2013-03-05 19:42:00,
2013-03-05 14:47:00,44.2,30.4,29.99,NE,44,4.0,10.0,58,0.00,,,0.00,meteohub,2013-03-05 19:47:00,
2013-03-05 14:52:00,44.1,29.8,29.99,NNE,12,5.0,10.0,57,0.00,,,0.00,meteohub,2013-03-05 19:52:00,
2013-03-05 14:57:00,43.9,29.7,30.00,North,5,3.0,11.0,57,0.00,,,0.00,meteohub,2013-03-05 19:57:00,
2013-03-05 15:02:00,43.5,28.9,30.00,NNE,32,3.0,11.0,56,0.00,,,0.00,meteohub,2013-03-05 20:02:00,
2013-03-05 15:07:00,43.5,29.7,30.00,NNW,348,0.0,11.0,58,0.00,,,0.00,meteohub,2013-03-05 20:07:00,
2013-03-05 15:12:00,43.3,29.5,30.01,NNW,342,0.0,11.0,58,0.00,,,0.00,meteohub,2013-03-05 20:12:00,
2013-03-05 15:17:00,43.3,30.0,30.01,NNW,342,1.0,10.0,59,0.00,,,0.00,meteohub,2013-03-05 20:17:00,
2013-03-05 15:22:00,43.3,30.0,30.01,NNW,342,2.0,4.0,59,0.00,,,0.00,meteohub,2013-03-05 20:22:00,
2013-03-05 15:27:00,43.5,29.3,30.01,NNW,344,2.0,4.0,57,0.00,,,0.00,meteohub,2013-03-05 20:27:00,
2013-03-05 15:32:00,43.5,29.7,30.01,NNW,332,0.0,5.0,58,0.00,,,0.00,meteohub,2013-03-05 20:32:00,
2013-03-05 15:37:00,43.5,29.3,30.01,North,5,1.0,5.0,57,0.00,,,0.00,meteohub,2013-03-05 20:37:00,
2013-03-05 15:42:00,43.5,28.9,30.02,NNW,346,3.0,8.0,56,0.00,,,0.00,meteohub,2013-03-05 20:42:00,
2013-03-05 15:47:00,43.5,28.9,30.02,NNW,342,1.0,8.0,56,0.00,,,0.00,meteohub,2013-03-05 20:47:00,
2013-03-05 15:52:00,43.7,29.5,30.02,NE,34,3.0,8.0,57,0.00,,,0.00,meteohub,2013-03-05 20:52:00,
2013-03-05 15:57:00,43.7,29.1,30.02,North,5,1.0,7.0,56,0.00,,,0.00,meteohub,2013-03-05 20:57:00,
2013-03-05 16:02:00,43.7,29.1,30.02,North,11,2.0,7.0,56,0.00,,,0.00,meteohub,2013-03-05 21:02:00,
2013-03-05 16:07:00,43.5,29.7,30.02,NNW,336,2.0,6.0,58,0.00,,,0.00,meteohub,2013-03-05 21:07:00,
2013-03-05 16:12:00,43.5,29.3,30.03,NNE,17,2.0,6.0,57,0.00,,,0.00,meteohub,2013-03-05 21:12:00,
2013-03-05 16:17:00,43.5,29.3,30.03,NNW,331,2.0,6.0,57,0.00,,,0.00,meteohub,2013-03-05 21:17:00,
2013-03-05 16:22:00,43.3,29.5,30.03,North,5,2.0,7.0,58,0.00,,,0.00,meteohub,2013-03-05 21:22:00,
2013-03-05 16:27:00,43.3,30.0,30.03,NNE,17,4.0,7.0,59,0.00,,,0.00,meteohub,2013-03-05 21:27:00,
2013-03-05 16:32:00,43.3,29.5,30.03,North,5,5.0,7.0,58,0.00,,,0.00,meteohub,2013-03-05 21:32:00,
2013-03-05 16:37:00,43.2,29.3,30.03,NNE,14,0.0,7.0,58,0.00,,,0.00,meteohub,2013-03-05 21:37:00,
2013-03-05 16:42:00,43.2,29.8,30.03,North,350,3.0,7.0,59,0.00,,,0.00,meteohub,2013-03-05 21:42:00,
2013-03-05 16:47:00,43.2,29.3,30.04,North,5,4.0,7.0,58,0.00,,,0.00,meteohub,2013-03-05 21:47:00,
2013-03-05 16:52:00,43.0,29.3,30.04,North,9,2.0,6.0,58,0.00,,,0.00,meteohub,2013-03-05 21:52:00,
2013-03-05 16:57:00,43.0,29.7,30.04,North,5,4.0,6.0,59,0.00,,,0.00,meteohub,2013-03-05 21:57:00,
2013-03-05 17:02:00,42.8,31.1,30.04,NNE,28,3.0,7.0,63,0.00,,,0.00,meteohub,2013-03-05 22:02:00,
2013-03-05 17:07:00,42.4,31.1,30.04,ENE,67,3.0,7.0,64,0.00,,,0.00,meteohub,2013-03-05 22:07:00,
2013-03-05 17:12:00,42.3,31.3,30.04,NE,35,3.0,7.0,65,0.00,,,0.00,meteohub,2013-03-05 22:12:00,
2013-03-05 17:17:00,42.1,32.0,30.04,NE,40,1.0,6.0,67,0.00,,,0.00,meteohub,2013-03-05 22:17:00,
2013-03-05 17:22:00,42.1,32.4,30.04,NE,43,0.0,6.0,68,0.00,,,0.00,meteohub,2013-03-05 22:22:00,
2013-03-05 17:27:00,41.7,32.0,30.04,NE,43,0.0,6.0,68,0.00,,,0.00,meteohub,2013-03-05 22:27:00,
2013-03-05 17:32:00,41.7,32.4,30.04,NE,51,3.0,5.0,69,0.00,,,0.00,meteohub,2013-03-05 22:32:00,
2013-03-05 17:37:00,41.5,32.2,30.04,NE,51,0.0,5.0,69,0.00,,,0.00,meteohub,2013-03-05 22:37:00,
2013-03-05 17:42:00,41.5,32.5,30.04,NE,51,0.0,5.0,70,0.00,,,0.00,meteohub,2013-03-05 22:42:00,
2013-03-05 17:47:00,41.5,32.5,30.05,NE,49,1.0,5.0,70,0.00,,,0.00,meteohub,2013-03-05 22:47:00,
2013-03-05 17:52:00,41.4,32.7,30.05,NE,46,0.0,4.0,71,0.00,,,0.00,meteohub,2013-03-05 22:52:00,
2013-03-05 17:57:00,41.2,32.5,30.04,NE,46,1.0,4.0,71,0.00,,,0.00,meteohub,2013-03-05 22:57:00,
2013-03-05 18:02:00,40.8,32.5,30.04,NE,46,0.0,4.0,72,0.00,,,0.00,meteohub,2013-03-05 23:02:00,
2013-03-05 18:07:00,40.6,32.4,30.04,NE,46,0.0,3.0,72,0.00,,,0.00,meteohub,2013-03-05 23:07:00,
2013-03-05 18:12:00,40.5,32.5,30.05,NE,46,0.0,2.0,73,0.00,,,0.00,meteohub,2013-03-05 23:12:00,
2013-03-05 18:17:00,39.9,32.4,30.05,NE,46,0.0,2.0,74,0.00,,,0.00,meteohub,2013-03-05 23:17:00,
2013-03-05 18:22:00,39.7,32.2,30.05,NE,46,0.0,2.0,74,0.00,,,0.00,meteohub,2013-03-05 23:22:00,
2013-03-05 18:27:00,39.6,32.0,30.05,NE,46,0.0,2.0,74,0.00,,,0.00,meteohub,2013-03-05 23:27:00,
2013-03-05 18:32:00,39.4,31.8,30.05,NE,46,0.0,2.0,74,0.00,,,0.00,meteohub,2013-03-05 23:32:00,
2013-03-05 18:37:00,39.0,31.8,30.06,ENE,70,1.0,0.0,75,0.00,,,0.00,meteohub,2013-03-05 23:37:00,
2013-03-05 18:42:00,38.7,32.0,30.06,ENE,65,3.0,5.0,77,0.00,,,0.00,meteohub,2013-03-05 23:42:00,
2013-03-05 18:47:00,38.5,32.2,30.06,ENE,67,0.0,5.0,78,0.00,,,0.00,meteohub,2013-03-05 23:47:00,
2013-03-05 18:52:00,38.5,32.5,30.06,ENE,67,0.0,5.0,79,0.00,,,0.00,meteohub,2013-03-05 23:52:00,
2013-03-05 18:57:00,38.3,32.4,30.06,ENE,66,0.0,4.0,79,0.00,,,0.00,meteohub,2013-03-05 23:57:00,
2013-03-05 19:02:00,38.1,32.2,30.06,ENE,67,1.0,2.0,79,0.00,,,0.00,meteohub,2013-03-06 00:02:00,
2013-03-05 19:07:00,38.1,32.5,30.06,ENE,67,1.0,2.0,80,0.00,,,0.00,meteohub,2013-03-06 00:07:00,
2013-03-05 19:12:00,37.9,32.4,30.06,ENE,66,0.0,2.0,80,0.00,,,0.00,meteohub,2013-03-06 00:12:00,
2013-03-05 19:17:00,37.9,32.4,30.06,ENE,67,0.0,2.0,80,0.00,,,0.00,meteohub,2013-03-06 00:17:00,
2013-03-05 19:22:00,37.8,32.5,30.06,ENE,67,0.0,2.0,81,0.00,,,0.00,meteohub,2013-03-06 00:22:00,
2013-03-05 19:27:00,37.6,32.4,30.07,ENE,66,0.0,3.0,81,0.00,,,0.00,meteohub,2013-03-06 00:27:00,
2013-03-05 19:32:00,37.4,32.2,30.07,ENE,67,0.0,3.0,81,0.00,,,0.00,meteohub,2013-03-06 00:32:00,
2013-03-05 19:37:00,37.2,32.0,30.06,ENE,66,0.0,2.0,81,0.00,,,0.00,meteohub,2013-03-06 00:37:00,
2013-03-05 19:42:00,37.0,32.0,30.06,ENE,67,0.0,2.0,82,0.00,,,0.00,meteohub,2013-03-06 00:42:00,
2013-03-05 19:47:00,37.0,32.4,30.07,ENE,67,0.0,2.0,83,0.00,,,0.00,meteohub,2013-03-06 00:47:00,
2013-03-05 19:52:00,36.9,32.2,30.07,ENE,66,0.0,1.0,83,0.00,,,0.00,meteohub,2013-03-06 00:52:00,
2013-03-05 19:57:00,36.7,32.0,30.07,ENE,66,0.0,1.0,83,0.00,,,0.00,meteohub,2013-03-06 00:57:00,
2013-03-05 20:02:00,36.5,31.8,30.07,ENE,66,0.0,0.0,83,0.00,,,0.00,meteohub,2013-03-06 01:02:00,
2013-03-05 20:07:00,36.3,31.3,30.07,ENE,67,0.0,0.0,82,0.00,,,0.00,meteohub,2013-03-06 01:07:00,
2013-03-05 20:12:00,36.1,31.5,30.07,ENE,67,0.0,0.0,83,0.00,,,0.00,meteohub,2013-03-06 01:12:00,
2013-03-05 20:17:00,36.0,31.3,30.07,ENE,67,0.0,0.0,83,0.00,,,0.00,meteohub,2013-03-06 01:17:00,
2013-03-05 20:22:00,35.6,30.9,30.07,ENE,66,0.0,0.0,83,0.00,,,0.00,meteohub,2013-03-06 01:22:00,
2013-03-05 20:27:00,35.2,30.6,30.07,ENE,67,0.0,0.0,83,0.00,,,0.00,meteohub,2013-03-06 01:27:00,
2013-03-05 20:32:00,35.1,30.7,30.07,ENE,67,0.0,0.0,84,0.00,,,0.00,meteohub,2013-03-06 01:32:00,
2013-03-05 20:37:00,34.9,30.9,30.07,ENE,67,0.0,0.0,85,0.00,,,0.00,meteohub,2013-03-06 01:37:00,
2013-03-05 20:42:00,34.5,30.7,30.07,ENE,66,0.0,0.0,86,0.00,,,0.00,meteohub,2013-03-06 01:42:00,
2013-03-05 20:47:00,34.3,30.6,30.07,ENE,66,0.0,0.0,86,0.00,,,0.00,meteohub,2013-03-06 01:47:00,
2013-03-05 20:52:00,34.2,30.4,30.07,ENE,67,0.0,0.0,86,0.00,,,0.00,meteohub,2013-03-06 01:52:00,
2013-03-05 20:57:00,34.0,30.2,30.07,ENE,67,0.0,0.0,86,0.00,,,0.00,meteohub,2013-03-06 01:57:00,
2013-03-05 21:02:00,33.8,30.0,30.07,ENE,67,0.0,0.0,86,0.00,,,0.00,meteohub,2013-03-06 02:02:00,
2013-03-05 21:07:00,33.6,30.2,30.07,ENE,67,0.0,0.0,87,0.00,,,0.00,meteohub,2013-03-06 02:07:00,
2013-03-05 21:12:00,33.4,30.0,30.07,ENE,67,0.0,0.0,87,0.00,,,0.00,meteohub,2013-03-06 02:12:00,
2013-03-05 21:17:00,33.3,29.8,30.07,ENE,67,0.0,0.0,87,0.00,,,0.00,meteohub,2013-03-06 02:17:00,
2013-03-05 21:22:00,33.1,29.8,30.07,ENE,67,0.0,0.0,88,0.00,,,0.00,meteohub,2013-03-06 02:22:00,
2013-03-05 21:27:00,32.7,29.5,30.07,ENE,66,0.0,0.0,88,0.00,,,0.00,meteohub,2013-03-06 02:27:00,
2013-03-05 21:32:00,32.5,29.7,30.06,ENE,67,0.0,0.0,89,0.00,,,0.00,meteohub,2013-03-06 02:32:00,
2013-03-05 21:37:00,32.4,29.5,30.07,ENE,67,0.0,0.0,89,0.00,,,0.00,meteohub,2013-03-06 02:37:00,
2013-03-05 21:42:00,32.4,29.5,30.07,ENE,67,0.0,0.0,89,0.00,,,0.00,meteohub,2013-03-06 02:42:00,
2013-03-05 21:47:00,32.2,29.7,30.07,ENE,67,0.0,0.0,90,0.00,,,0.00,meteohub,2013-03-06 02:47:00,
2013-03-05 21:52:00,32.2,29.8,30.07,ENE,66,0.0,0.0,91,0.00,,,0.00,meteohub,2013-03-06 02:52:00,
2013-03-05 21:57:00,32.2,30.2,30.07,ENE,67,0.0,0.0,92,0.00,,,0.00,meteohub,2013-03-06 02:57:00,
2013-03-05 22:02:00,32.2,30.2,30.07,ENE,66,0.0,0.0,92,0.00,,,0.00,meteohub,2013-03-06 03:02:00,
2013-03-05 22:07:00,32.4,30.4,30.07,ENE,67,0.0,0.0,92,0.00,,,0.00,meteohub,2013-03-06 03:07:00,
2013-03-05 22:12:00,32.4,30.4,30.07,ENE,66,0.0,0.0,92,0.00,,,0.00,meteohub,2013-03-06 03:12:00,
2013-03-05 22:17:00,32.5,30.6,30.07,ENE,67,0.0,0.0,92,0.00,,,0.00,meteohub,2013-03-06 03:17:00,
2013-03-05 22:23:00,32.5,30.7,30.08,ENE,67,0.0,0.0,93,0.00,,,0.00,meteohub,2013-03-06 03:23:00,
2013-03-05 22:28:00,32.7,30.9,30.08,ENE,66,0.0,0.0,93,0.00,,,0.00,meteohub,2013-03-06 03:28:00,
2013-03-05 22:33:00,32.7,30.9,30.09,ENE,67,0.0,0.0,93,0.00,,,0.00,meteohub,2013-03-06 03:33:00,
2013-03-05 22:38:00,33.1,31.1,30.09,ENE,67,0.0,0.0,92,0.00,,,0.00,meteohub,2013-03-06 03:38:00,
2013-03-05 22:43:00,33.1,31.3,30.09,ENE,67,0.0,0.0,93,0.00,,,0.00,meteohub,2013-03-06 03:43:00,
2013-03-05 22:48:00,33.3,31.5,30.09,ENE,66,0.0,0.0,93,0.00,,,0.00,meteohub,2013-03-06 03:48:00,
2013-03-05 22:53:00,33.4,31.6,30.09,ENE,66,0.0,2.0,93,0.00,,,0.00,meteohub,2013-03-06 03:53:00,
2013-03-05 22:58:00,33.6,31.5,30.09,ENE,67,0.0,2.0,92,0.00,,,0.00,meteohub,2013-03-06 03:58:00,
2013-03-05 23:03:00,33.6,31.5,30.09,ENE,67,0.0,2.0,92,0.00,,,0.00,meteohub,2013-03-06 04:03:00,
2013-03-05 23:08:00,33.8,31.6,30.09,ENE,67,0.0,2.0,92,0.00,,,0.00,meteohub,2013-03-06 04:08:00,
2013-03-05 23:13:00,34.0,31.8,30.08,NE,38,0.0,2.0,92,0.00,,,0.00,meteohub,2013-03-06 04:13:00,
2013-03-05 23:18:00,34.0,31.8,30.08,NNE,17,1.0,2.0,92,0.00,,,0.00,meteohub,2013-03-06 04:18:00,
2013-03-05 23:23:00,34.2,31.8,30.08,NNE,17,0.0,3.0,91,0.00,,,0.00,meteohub,2013-03-06 04:23:00,
2013-03-05 23:28:00,34.2,31.8,30.07,WNW,290,0.0,3.0,91,0.00,,,0.00,meteohub,2013-03-06 04:28:00,
2013-03-05 23:33:00,34.3,32.0,30.07,WNW,291,1.0,3.0,91,0.00,,,0.00,meteohub,2013-03-06 04:33:00,
2013-03-05 23:38:00,34.3,31.6,30.07,WNW,290,0.0,3.0,90,0.00,,,0.00,meteohub,2013-03-06 04:38:00,
2013-03-05 23:43:00,34.5,31.8,30.06,WNW,291,0.0,2.0,90,0.00,,,0.00,meteohub,2013-03-06 04:43:00,
2013-03-05 23:48:00,34.5,31.6,30.06,WNW,290,0.0,2.0,89,0.00,,,0.00,meteohub,2013-03-06 04:48:00,
2013-03-05 23:53:00,34.3,31.5,30.06,WNW,292,1.0,2.0,89,0.00,,,0.00,meteohub,2013-03-06 04:53:00,
2013-03-05 23:58:00,34.3,31.5,30.06,WNW,292,1.0,3.0,89,0.00,,,0.00,meteohub,2013-03-06 04:58:00,